Regional Weather Roundup
Issued by NWS State College, PA

Home | Current Version | Previous Version | Text Only | Print | Product List | Glossary On
Versions: 1 2 3 4 5 6 7 8 9 10 11 12 13 14 15 16 17 18 19 20 21 22 23 24 25 26 27 28 29 30 31 32 33 34 35 36 37 38 39 40 41 42 43 44 45 46 47 48 49 50
000
ASUS41 KCTP 200010
RWRCTP

REGIONAL WEATHER ROUNDUP
NATIONAL WEATHER SERVICE STATE COLLEGE PA
700 PM EST FRI JAN 19 2018

Note: "fair" indicates few or no clouds below 12,000 feet with no
significant weather and/or obstructions to visibility.

* = STATION THAT DOES NOT REPORT PRECIPITATION /E.G. RAIN...SNOW...ETC/
    THUNDER OR FOG.

PAZ002>004-007>009-013>016-020>023-029>032-200100-
WESTERN PENNSYLVANIA

CITY           SKY/WX    TMP DP  RH WIND       PRES   REMARKS
ERIE           FAIR      37  19  48 S21G31    29.88S
MEADVILLE      FAIR      32  18  56 S12G21    29.92S
FRANKLIN*      FAIR      33  17  51 SW18      29.94S
NEW CASTLE     FAIR      35  18  49 VRB5      29.99S
BEAVER COUNTY  CLEAR     34  19  55 SW10G16   29.98F
BUTLER*        FAIR      33  18  53 S7        29.99F
PITTSBURGH INT FAIR      36  18  48 SW8       30.00S
PITTSBURGH     FAIR      35  16  45 S10       30.01S
INDIANA*       CLEAR     32  19  59 SW8       30.03S
LATROBE        CLEAR     34  18  51 SW12      30.04R
WASHINGTON CO* NOT AVBL
$$

PAZ004>006-010>012-017>019-024>028-033>037-041-042-045-046-049>053-200100-
CENTRAL PENNSYLVANIA

CITY           SKY/WX    TMP DP  RH WIND       PRES   REMARKS
BRADFORD       FAIR      32  18  56 SW8       29.88F
DUBOIS         FAIR      31  16  54 SW12      29.93F
CLEARFIELD     FAIR      32  18  56 S8        29.95F
JOHNSTOWN      FAIR      33  17  51 SW9       29.96R
ALTOONA        FAIR      39  22  50 SW12      29.98R
STATE COLLEGE  CLEAR     34  19  55 SW10      29.96S
WILLIAMSPORT   FAIR      38  20  48 W9        29.95S
SELINSGROVE    FAIR      26  20  77 CALM      29.98S
FT INDIANTOWN  CLEAR     31  23  72 CALM      29.99S
CAPITAL CITY   FAIR      40  20  44 W6        30.00S
HARRISBURG     FAIR      37  22  54 CALM      30.00S
YORK           FAIR      43  20  39 SW6       30.01R
$$

PAZ038>040-043-044-047-048-054-055-060>062-067>071-200100-
EASTERN PENNSYLVANIA

CITY           SKY/WX    TMP DP  RH WIND       PRES   REMARKS
SCRANTON       FAIR      30  19  63 S3        29.92S
MOUNT POCONO   FAIR      30  18  60 W12       29.89S
ALLENTOWN      FAIR      32  18  56 W5        29.98S
QUAKERTOWN*    FAIR      27  19  74 MISG      29.99F
READING        FAIR      36  21  54 S3        29.99S
LANCASTER      FAIR      38  21  50 SW3       30.00S
COATESVILLE    FAIR      41  19  42 VRB7      30.01S
POTTSTOWN      FAIR      30  19  63 CALM      30.01S
BLUE BELL      FAIR      30  23  74 CALM      30.02S
DOYLESTOWN     FAIR      36  18  48 SW7       29.98F
WILLOW GROVE   NOT AVBL
NORTH PHILA    FAIR      39  20  46 SW5       30.03S
PHILADELPHIA   FAIR      39  20  46 SW6       30.03R
$$




USA.gov is the U.S. government's official web portal to all federal, state and local government web resources and services.